KC7MGR Weather Reports


time (UTC)temp
C
wind
direction
speed
KPH
gust
KPH
rain 1hr
cm
rain 24hr
cm
rain mn
cm
humidity
%
barometer
mb
20260507103841 8 221 8.0 20.9 0.00 0.00 0.00 67 1015.4
20260507103341 8 243 11.3 20.9 0.00 0.00 0.00 67 1015.5
20260507102838 8 245 8.0 16.1 0.00 0.00 0.00 67 1015.6
20260507102335 8 223 6.4 14.5 0.00 0.00 0.00 67 1015.5
20260507101833 8 241 6.4 17.7 0.00 0.00 0.00 67 1015.7
20260507101331 8 266 11.3 17.7 0.00 0.00 0.00 68 1015.6
20260507100828 8 245 3.2 14.5 0.00 0.00 0.00 68 1015.6
20260507100326 8 226 6.4 17.7 0.00 0.00 0.00 68 1015.5
20260507095847 8 279 8.0 17.7 0.00 0.00 0.00 68 1015.5
20260507095323 8 237 8.0 16.1 0.00 0.00 0.00 68 1015.5
20260507094841 8 233 6.4 16.1 0.00 0.00 0.00 67 1015.5
20260507094342 8 239 6.4 17.7 0.00 0.00 0.00 68 1015.4
20260507093839 8 210 8.0 17.7 0.00 0.00 0.00 67 1015.5
20260507093337 8 262 6.4 19.3 0.00 0.00 0.00 67 1015.3
20260507092835 8 277 6.4 22.5 0.00 0.00 0.00 67 1015.3
20260507092329 8 231 9.7 22.5 0.00 0.00 0.00 67 1015.3
20260507091848 8 239 6.4 27.4 0.00 0.00 0.00 67 1015.3
20260507091328 8 222 11.3 27.4 0.00 0.00 0.00 66 1015.2
20260507090829 8 189 9.7 22.5 0.00 0.00 0.00 66 1015.3
20260507090326 9 206 9.7 22.5 0.00 0.00 0.00 66 1015.1
20260507085823 9 196 12.9 20.9 0.00 0.00 0.00 65 1015.1
20260507085324 9 210 11.3 16.1 0.00 0.00 0.00 65 1015.2
20260507084841 9 191 9.7 16.1 0.00 0.00 0.00 65 1015.2
20260507084338 9 200 9.7 22.5 0.00 0.00 0.00 65 1015.2
20260507083836 9 209 12.9 22.5 0.00 0.00 0.00 64 1015.3
20260507083359 9 200 9.7 17.7 0.00 0.00 0.00 64 1015.3
20260507082839 10 216 9.7 22.5 0.00 0.00 0.00 63 1015.3
20260507082335 10 204 9.7 22.5 0.00 0.00 0.00 63 1015.3
20260507081836 10 224 6.4 24.1 0.00 0.00 0.00 63 1015.5
20260507081332 10 251 9.7 27.4 0.00 0.00 0.00 62 1015.5
20260507080831 10 223 11.3 19.3 0.00 0.00 0.00 62 1015.5
20260507080328 10 245 8.0 29.0 0.00 0.00 0.00 61 1015.5
20260507075825 10 223 14.5 29.0 0.00 0.00 0.00 61 1015.5
20260507075324 10 242 11.3 22.5 0.00 0.00 0.00 60 1015.5
20260507074841 10 269 11.3 22.5 0.00 0.00 0.00 60 1015.5
20260507074341 10 216 8.0 19.3 0.00 0.00 0.00 59 1015.5
20260507073841 11 223 11.3 19.3 0.00 0.00 0.00 58 1015.5
20260507073338 11 215 6.4 16.1 0.00 0.00 0.00 58 1015.5
20260507072838 11 226 8.0 16.1 0.00 0.00 0.00 57 1015.4
20260507072356 11 213 11.3 17.7 0.00 0.00 0.00 57 1015.3
20260507071858 11 214 9.7 22.5 0.00 0.00 0.00 57 1015.4
20260507071336 11 187 12.9 19.3 0.00 0.00 0.00 57 1015.3
20260507070835 11 220 11.3 20.9 0.00 0.00 0.00 57 1015.3
20260507070352 11 200 12.9 20.9 0.00 0.00 0.00 57 1015.3
20260507065830 11 202 11.3 19.3 0.00 0.00 0.00 57 1015.4
20260507065327 11 202 12.9 17.7 0.00 0.00 0.00 57 1015.4
20260507064824 11 231 8.0 19.3 0.00 0.00 0.00 57 1015.5
20260507064341 11 215 9.7 19.3 0.00 0.00 0.00 57 1015.5
20260507063838 11 212 9.7 14.5 0.00 0.00 0.00 57 1015.5
20260507063403 11 202 8.0 14.5 0.00 0.00 0.00 58 1015.5
20260507062839 11 200 8.0 16.1 0.00 0.00 0.00 58 1015.5
20260507062400 11 213 9.7 16.1 0.00 0.00 0.00 58 1015.5
20260507061835 11 223 9.7 19.3 0.00 0.00 0.00 58 1015.5
20260507061353 11 224 8.0 19.3 0.00 0.00 0.00 58 1015.5
20260507060834 11 204 12.9 19.3 0.00 0.00 0.00 58 1015.5
20260507060335 11 187 11.3 19.3 0.00 0.00 0.00 58 1015.6
20260507055836 11 212 9.7 19.3 0.00 0.00 0.00 58 1015.6
20260507055333 11 216 8.0 19.3 0.00 0.00 0.00 58 1015.6
20260507054834 11 202 8.0 25.7 0.00 0.00 0.00 58 1015.6
20260507054336 11 188 14.5 25.7 0.00 0.00 0.00 58 1015.7
20260507053833 11 215 11.3 19.3 0.00 0.00 0.00 58 1015.7
20260507053333 11 215 8.0 19.3 0.00 0.00 0.00 59 1015.7
20260507052859 11 202 9.7 17.7 0.00 0.00 0.00 59 1015.7
20260507052334 11 228 11.3 19.3 0.00 0.00 0.00 59 1015.7
20260507051832 11 225 8.0 20.9 0.00 0.00 0.00 59 1015.8
20260507051332 11 226 8.0 16.1 0.00 0.00 0.00 59 1015.7
20260507050830 11 214 9.7 22.5 0.00 0.00 0.00 59 1015.7
20260507050346 11 214 11.3 22.5 0.00 0.00 0.00 58 1015.7
20260507045842 12 229 8.0 19.3 0.00 0.00 0.00 58 1015.8
20260507045339 12 183 8.0 16.1 0.00 0.00 0.00 57 1015.8
20260507044836 12 235 6.4 17.7 0.00 0.00 0.00 56 1015.8
20260507044337 12 241 9.7 17.7 0.00 0.00 0.00 55 1015.9
20260507043858 12 233 6.4 19.3 0.00 0.00 0.00 55 1016.0
20260507043335 12 216 8.0 16.1 0.00 0.00 0.00 55 1016.0
20260507042858 12 232 8.0 17.7 0.00 0.00 0.00 55 1016.0
20260507042359 12 215 11.3 20.9 0.00 0.00 0.00 54 1016.0
20260507041836 12 208 8.0 22.5 0.00 0.00 0.00 55 1016.0
20260507041357 12 241 9.7 17.7 0.00 0.00 0.00 56 1016.0
20260507040857 12 245 6.4 17.7 0.00 0.00 0.00 57 1016.0
20260507040401 12 282 6.4 17.7 0.00 0.00 0.00 57 1016.0
20260507035903 12 240 6.4 14.5 0.00 0.00 0.00 56 1016.0
20260507035338 12 252 6.4 14.5 0.00 0.00 0.00 57 1016.0
20260507034837 12 254 6.4 14.5 0.00 0.00 0.00 58 1016.0
20260507034338 12 273 8.0 16.1 0.00 0.00 0.00 59 1016.0
20260507033836 12 252 8.0 14.5 0.00 0.00 0.00 59 1015.9
20260507033333 12 262 6.4 20.9 0.00 0.00 0.00 60 1015.9
20260507032830 12 274 8.0 20.9 0.00 0.00 0.00 60 1015.9
20260507032347 12 228 6.4 20.9 0.00 0.00 0.00 62 1016.0
20260507031843 12 274 4.8 20.9 0.00 0.00 0.00 62 1015.9
20260507031322 12 253 6.4 16.1 0.00 0.00 0.00 64 1015.9
20260507030824 12 281 4.8 12.9 0.00 0.00 0.00 66 1015.9
20260507030342 12 299 0.0 11.3 0.00 0.00 0.00 69 1015.9
20260507025830 12 239 1.6 11.3 0.00 0.00 0.00 68 1015.8
20260507025327 12 271 3.2 6.4 0.00 0.00 0.00 68 1015.8
20260507024824 12 246 1.6 4.8 0.00 0.00 0.00 68 1015.8
20260507024323 12 287 0.0 14.5 0.00 0.00 0.00 70 1015.8
20260507023825 12 301 8.0 14.5 0.00 0.00 0.00 66 1015.8
20260507023342 12 289 0.0 0.0 0.00 0.00 0.00 72 1015.9
20260507022841 12 289 0.0 0.0 0.00 0.00 0.00 72 1015.8
20260507022341 12 289 0.0 0.0 0.00 0.00 0.00 73 1015.9
20260507021839 12 289 0.0 4.8 0.00 0.00 0.00 72 1016.0
20260507021337 12 289 0.0 8.0 0.00 0.00 0.00 71 1015.9
20260507020838 12 279 1.6 8.0 0.00 0.00 0.00 69 1015.8
20260507020335 12 231 3.2 8.0 0.00 0.00 0.00 72 1015.8
20260507015849 12 341 0.0 0.0 0.00 0.00 0.00 72 1015.7
20260507015324 12 341 0.0 0.0 0.00 0.00 0.00 72 1015.7
20260507014845 12 341 0.0 0.0 0.00 0.00 0.00 71 1015.6
20260507014324 12 341 0.0 0.0 0.00 0.00 0.00 71 1015.6
20260507013823 12 341 0.0 0.0 0.00 0.00 0.00 71 1015.7
20260507013340 12 341 0.0 0.0 0.00 0.00 0.00 71 1015.7
20260507012839 12 341 0.0 0.0 0.00 0.00 0.00 70 1015.7
20260507012339 12 342 0.0 0.0 0.00 0.00 0.00 70 1015.7
20260507011839 13 342 0.0 0.0 0.00 0.00 0.00 69 1015.8
20260507011339 13 342 0.0 0.0 0.00 0.00 0.00 69 1015.8
20260507010836 12 342 0.0 0.0 0.00 0.00 0.00 69 1015.7
20260507010334 12 350 0.0 0.0 0.00 0.00 0.00 70 1015.8
20260507005835 13 350 0.0 0.0 0.00 0.00 0.00 69 1015.6
20260507005336 12 350 0.0 0.0 0.00 0.00 0.00 69 1015.7
20260507004839 13 350 0.0 0.0 0.00 0.00 0.00 69 1015.8
20260507004356 13 350 0.0 0.0 0.00 0.00 0.00 67 1015.8
20260507003835 13 345 0.0 0.0 0.00 0.00 0.00 68 1015.8
20260507003332 13 345 0.0 0.0 0.00 0.00 0.00 68 1015.9
20260507002830 13 345 0.0 0.0 0.00 0.00 0.00 68 1015.8
20260507002327 13 350 0.0 0.0 0.00 0.00 0.00 67 1015.8
20260507001824 13 340 0.0 0.0 0.00 0.00 0.00 67 1015.8
20260507001323 13 341 0.0 0.0 0.00 0.00 0.00 67 1015.8
20260507000823 13 342 0.0 0.0 0.00 0.00 0.00 66 1015.7
20260507000343 13 355 0.0 0.0 0.00 0.00 0.00 68 1015.7
20260506235842 13 355 0.0 0.0 0.00 0.00 0.00 67 1015.6
20260506235342 13 326 0.0 0.0 0.00 0.00 0.00 69 1015.5
20260506234904 13 360 0.0 0.0 0.00 0.00 0.00 68 1015.6
20260506234339 13 329 0.0 0.0 0.00 0.00 0.00 68 1015.6
20260506233838 13 329 0.0 0.0 0.00 0.00 0.00 69 1015.6
20260506233341 13 339 0.0 0.0 0.00 0.00 0.00 69 1015.8
20260506232840 13 350 0.0 0.0 0.00 0.00 0.00 68 1015.8
20260506232336 13 335 0.0 0.0 0.00 0.00 0.00 70 1015.8
20260506231837 13 339 0.0 0.0 0.00 0.00 0.00 69 1015.8
20260506231358 13 360 0.0 1.6 0.00 0.00 0.00 69 1015.8
20260506230836 13 343 0.0 1.6 0.00 0.00 0.00 67 1016.0
20260506230333 14 331 0.0 0.0 0.00 0.00 0.00 65 1015.8
20260506225851 14 332 0.0 4.8 0.00 0.00 0.00 65 1016.1
20260506225328 15 281 1.6 4.8 0.00 0.00 0.00 62 1016.1
20260506224849 16 338 0.0 6.4 0.00 0.00 0.00 58 1016.1
20260506224328 16 350 0.0 6.4 0.00 0.00 0.00 52 1016.3
20260506223825 16 96 0.0 3.2 0.00 0.00 0.00 49 1016.2
20260506223338 16 262 0.0 12.9 0.00 0.00 0.00 49 1016.4
20260506222857 16 350 1.6 17.7 0.00 0.00 0.00 46 1016.3
20260506222402 16 254 1.6 17.7 0.00 0.00 0.00 44 1016.2
20260506221904 16 251 1.6 20.9 0.00 0.00 0.00 48 1016.3
20260506221340 16 180 1.6 20.9 0.00 0.00 0.00 47 1016.3
20260506220841 16 281 4.8 20.9 0.00 0.00 0.00 48 1016.3
20260506220338 16 256 4.8 19.3 0.00 0.00 0.00 48 1016.4
20260506215834 16 223 11.3 22.5 0.00 0.00 0.00 46 1016.4
20260506215331 16 233 9.7 19.3 0.00 0.00 0.00 48 1016.5
20260506214827 16 252 9.7 20.9 0.00 0.00 0.00 48 1016.5
20260506214326 17 204 8.0 20.9 0.00 0.00 0.00 47 1016.4
20260506213826 17 227 9.7 27.4 0.00 0.00 0.00 48 1016.4
20260506213324 16 278 11.3 27.4 0.00 0.00 0.00 48 1016.5
20260506212841 16 220 9.7 25.7 0.00 0.00 0.00 49 1016.4
20260506212402 16 206 12.9 25.7 0.00 0.00 0.00 50 1016.6
20260506211838 16 183 4.8 20.9 0.00 0.00 0.00 51 1016.7
20260506211355 17 270 8.0 32.2 0.00 0.00 0.00 50 1016.8
20260506210835 17 235 9.7 32.2 0.00 0.00 0.00 50 1016.8
20260506210336 17 288 8.0 22.5 0.00 0.00 0.00 52 1017.0
20260506205832 16 222 4.8 30.6 0.00 0.00 0.00 54 1017.0
20260506205331 16 178 14.5 30.6 0.00 0.00 0.00 52 1017.0
20260506204829 16 240 9.7 20.9 0.00 0.00 0.00 53 1017.1
20260506204329 16 265 11.3 24.1 0.00 0.00 0.00 53 1017.0
20260506203848 16 191 8.0 20.9 0.00 0.00 0.00 54 1017.0
20260506203324 16 266 12.9 20.9 0.00 0.00 0.00 52 1016.8
20260506202842 16 185 8.0 16.1 0.00 0.00 0.00 53 1016.9
20260506202341 16 237 4.8 25.7 0.00 0.00 0.00 54 1017.0
20260506201904 16 199 12.9 25.7 0.00 0.00 0.00 51 1017.0
20260506201342 16 100 3.2 19.3 0.00 0.00 0.00 54 1017.0
20260506200839 15 266 9.7 22.5 0.00 0.00 0.00 54 1017.0
20260506200337 16 240 11.3 19.3 0.00 0.00 0.00 53 1017.1
20260506195837 16 273 9.7 17.7 0.00 0.00 0.00 54 1017.2
20260506195340 15 283 4.8 24.1 0.00 0.00 0.00 54 1017.2
20260506194837 15 243 14.5 24.1 0.00 0.00 0.00 53 1017.2
20260506194352 15 242 12.9 25.7 0.00 0.00 0.00 53 1017.2
20260506193832 15 195 8.0 19.3 0.00 0.00 0.00 53 1017.1
20260506193330 15 174 1.6 17.7 0.00 0.00 0.00 53 1017.2
20260506192832 15 209 8.0 24.1 0.00 0.00 0.00 53 1017.3
20260506192333 15 271 12.9 24.1 0.00 0.00 0.00 53 1017.3
20260506191834 15 224 6.4 19.3 0.00 0.00 0.00 53 1017.3
20260506191334 15 229 9.7 22.5 0.00 0.00 0.00 53 1017.4
20260506190834 15 267 11.3 22.5 0.00 0.00 0.00 53 1017.4
20260506190355 15 216 6.4 17.7 0.00 0.00 0.00 53 1017.5
20260506185836 15 241 6.4 22.5 0.00 0.00 0.00 54 1017.5
20260506185336 15 272 12.9 22.5 0.00 0.00 0.00 52 1017.5
20260506184834 15 201 12.9 20.9 0.00 0.00 0.00 52 1017.4
20260506184331 15 229 6.4 20.9 0.00 0.00 0.00 53 1017.4
20260506183829 15 271 8.0 20.9 0.00 0.00 0.00 52 1017.6
20260506183327 15 224 8.0 16.1 0.00 0.00 0.00 52 1017.5
20260506182828 15 170 4.8 14.5 0.00 0.00 0.00 53 1017.6
20260506182328 15 216 6.4 14.5 0.00 0.00 0.00 51 1017.6
20260506181829 14 266 6.4 11.3 0.00 0.00 0.00 52 1017.5
20260506181328 14 260 4.8 24.1 0.00 0.00 0.00 53 1017.5
20260506180825 13 237 11.3 24.1 0.00 0.00 0.00 53 1017.4
20260506180342 13 237 6.4 22.5 0.00 0.00 0.00 53 1017.4
20260506175840 13 231 6.4 24.1 0.00 0.00 0.00 54 1017.4
20260506175341 13 235 6.4 24.1 0.00 0.00 0.00 54 1017.3
20260506174838 13 190 14.5 20.9 0.00 0.00 0.00 52 1017.3
20260506174400 13 199 8.0 22.5 0.00 0.00 0.00 52 1017.4
20260506173902 13 239 9.7 24.1 0.00 0.00 0.00 53 1017.4
20260506173403 13 234 14.5 24.1 0.00 0.00 0.00 51 1017.2
20260506172840 13 212 12.9 24.1 0.00 0.00 0.00 50 1017.2
20260506172339 13 214 9.7 24.1 0.00 0.00 0.00 53 1017.1
20260506171855 13 212 6.4 19.3 0.00 0.00 0.00 54 1017.1
20260506171331 12 232 6.4 24.1 0.00 0.00 0.00 54 1017.1